Tracking 19170 objects as of 23-May-2018
HD Live streaming from Space Station
objects crossing your sky now

NOAA 16 DEB

Track NOAA 16 DEB now!
10-day predictions


NORAD ID: 41417
Int'l Code: 2000-055KW
Perigee: 836.6 km
Apogee: 875.4 km
Inclination: 98.9 °
Period: 101.9 minutes
Semi major axis: 7226 km
RCS: Unknown
Launch date: September 21, 2000
Source: United States (US)
Launch site: AIR FORCE WESTERN TEST RANGE (AFWTR)

Note: This is SATELLITE DEBRIS
aabbcc
Your satellite tracking list
Your tracking list is empty




NASA's NSSDC Master Catalog

Two Line Element Set (TLE):
1 41417U 00055KW  18142.43462216 +.00000644 +00000-0 +36701-3 0  9995
2 41417 098.8726 218.0052 0026779 138.8268 221.4931 14.13077720115409
Source of the keplerian elements: AFSPC